When you browse on this site, cookies collect data to enhance your experience and personalize the content and advertising you see.
Visit our Privacy Policy to learn more. By continuing to use the site, you agree to this use of cookies and data.

Stündliche Wetter Barinas

Heute, 11 Juli, Samstag

Zeit Temperatur Niederschläge Wind Luftdruck Luftfeuchtigkeit
00:00 +24°C° 0 mm 1 m/S 744 mmHg 92%
01:00 +24°C° 0 mm 1 m/S 744 mmHg 91%
02:00 +24°C° 0 mm 1 m/S 743 mmHg 90%
03:00 +24°C° 0 mm 1 m/S 743 mmHg 89%
04:00 +24°C° 0 mm 1 m/S 743 mmHg 88%
05:00 +24°C° 0.3 mm 1 m/S 743 mmHg 87%
06:00 +25°C° 0.3 mm 1 m/S 744 mmHg 86%
07:00 +26°C° 0.3 mm 1 m/S 744 mmHg 85%
08:00 +26°C° 0.8 mm 1 m/S 744 mmHg 86%
09:00 +26°C° 0.8 mm 1 m/S 744 mmHg 87%
10:00 +26°C° 0.8 mm 1 m/S 744 mmHg 88%
11:00 +27°C° 1 mm 1 m/S 744 mmHg 87%
12:00 +27°C° 1 mm 1 m/S 744 mmHg 85%
13:00 +28°C° 1 mm 1 m/S 743 mmHg 83%
14:00 +29°C° 0.7 mm 1 m/S 742 mmHg 80%
15:00 +27°C° 0.7 mm 0 m/S 742 mmHg 77%
16:00 +28°C° 0.7 mm 0 m/S 741 mmHg 74%
17:00 +26°C° 0.1 mm 0 m/S 741 mmHg 78%
18:00 +25°C° 0.1 mm 0 m/S 742 mmHg 83%
19:00 +26°C° 0.1 mm 1 m/S 742 mmHg 87%
20:00 +26°C° 0.2 mm 1 m/S 743 mmHg 88%
21:00 +26°C° 0.2 mm 1 m/S 743 mmHg 89%
22:00 +23°C° 0.2 mm 0 m/S 744 mmHg 89%
23:00 +25°C° 0.3 mm 1 m/S 743 mmHg 90%

Morgen, 12 Juli, Sonntag

Zeit Temperatur Niederschläge Wind Luftdruck Luftfeuchtigkeit
00:00 +25°C° 0.3 mm 1 m/S 743 mmHg 91%
01:00 +25°C° 0.3 mm 1 m/S 743 mmHg 92%
02:00 +24°C° 0.3 mm 1 m/S 743 mmHg 93%
03:00 +24°C° 0.3 mm 1 m/S 743 mmHg 94%
04:00 +24°C° 0.3 mm 1 m/S 742 mmHg 95%
05:00 +24°C° 0.3 mm 1 m/S 743 mmHg 95%
06:00 +25°C° 0.3 mm 1 m/S 743 mmHg 94%
07:00 +25°C° 0.3 mm 1 m/S 744 mmHg 93%
08:00 +25°C° 1.8 mm 1 m/S 744 mmHg 94%
09:00 +25°C° 1.8 mm 1 m/S 744 mmHg 95%
10:00 +25°C° 1.8 mm 1 m/S 745 mmHg 97%
11:00 +25°C° 3.9 mm 1 m/S 744 mmHg 96%
12:00 +25°C° 3.9 mm 2 m/S 744 mmHg 95%
13:00 +26°C° 3.9 mm 2 m/S 743 mmHg 94%
14:00 +27°C° 0.2 mm 1 m/S 743 mmHg 89%
15:00 +28°C° 0.2 mm 1 m/S 742 mmHg 84%
16:00 +29°C° 0.2 mm 1 m/S 742 mmHg 79%
17:00 +27°C° 0 mm 1 m/S 742 mmHg 82%
18:00 +24°C° 0 mm 0 m/S 743 mmHg 86%
19:00 +23°C° 0 mm 0 m/S 743 mmHg 90%
20:00 +23°C° 0 mm 0 m/S 743 mmHg 89%
21:00 +23°C° 0 mm 0 m/S 744 mmHg 89%
22:00 +23°C° 0 mm 0 m/S 744 mmHg 88%
23:00 +23°C° 0 mm 0 m/S 744 mmHg 89%

übermorgen, 13 Juli, Montag

Zeit Temperatur Niederschläge Wind Luftdruck Luftfeuchtigkeit
00:00 +23°C° 0 mm 0 m/S 744 mmHg 89%
01:00 +22°C° 0 mm 0 m/S 743 mmHg 90%
02:00 +22°C° 0.1 mm 0 m/S 743 mmHg 89%
03:00 +22°C° 0.1 mm 0 m/S 743 mmHg 89%
04:00 +22°C° 0.1 mm 0 m/S 743 mmHg 89%
05:00 +22°C° 0.4 mm 0 m/S 744 mmHg 89%
06:00 +24°C° 0.4 mm 1 m/S 744 mmHg 90%
07:00 +25°C° 0.4 mm 1 m/S 745 mmHg 90%
08:00 +25°C° 0.7 mm 1 m/S 745 mmHg 90%
09:00 +25°C° 0.7 mm 1 m/S 745 mmHg 90%
10:00 +26°C° 0.7 mm 1 m/S 745 mmHg 90%
11:00 +26°C° 1.3 mm 1 m/S 745 mmHg 91%
12:00 +26°C° 1.3 mm 1 m/S 744 mmHg 92%
13:00 +26°C° 1.3 mm 1 m/S 744 mmHg 93%
14:00 +26°C° 0.8 mm 1 m/S 744 mmHg 93%
15:00 +26°C° 0.8 mm 1 m/S 743 mmHg 93%
16:00 +26°C° 0.8 mm 1 m/S 743 mmHg 93%
17:00 +25°C° 0.5 mm 1 m/S 744 mmHg 94%
18:00 +25°C° 0.5 mm 2 m/S 744 mmHg 95%
19:00 +24°C° 0.5 mm 2 m/S 744 mmHg 97%
20:00 +24°C° 0 mm 2 m/S 744 mmHg 95%
21:00 +24°C° 0 mm 1 m/S 745 mmHg 94%
22:00 +24°C° 0 mm 1 m/S 745 mmHg 93%
23:00 +24°C° 0.1 mm 1 m/S 745 mmHg 92%

14 Juli, Dienstag

Zeit Temperatur Niederschläge Wind Luftdruck Luftfeuchtigkeit
00:00 +24°C° 0.1 mm 1 m/S 744 mmHg 91%
01:00 +24°C° 0.1 mm 1 m/S 744 mmHg 89%
02:00 +24°C° 0 mm 1 m/S 744 mmHg 90%
03:00 +24°C° 0 mm 1 m/S 744 mmHg 90%
04:00 +24°C° 0 mm 2 m/S 744 mmHg 90%
05:00 +24°C° 0 mm 2 m/S 744 mmHg 89%
06:00 +24°C° 0 mm 1 m/S 744 mmHg 88%
07:00 +25°C° 0 mm 1 m/S 745 mmHg 88%
08:00 +25°C° 0.1 mm 1 m/S 745 mmHg 86%
09:00 +26°C° 0.1 mm 1 m/S 746 mmHg 85%
10:00 +27°C° 0.1 mm 2 m/S 746 mmHg 83%
11:00 +27°C° 0.2 mm 1 m/S 745 mmHg 84%
12:00 +27°C° 0.2 mm 1 m/S 745 mmHg 84%
13:00 +27°C° 0.2 mm 1 m/S 744 mmHg 85%
14:00 +26°C° 0 mm 1 m/S 744 mmHg 86%
15:00 +24°C° 0 mm 0 m/S 743 mmHg 87%
16:00 +24°C° 0 mm 0 m/S 743 mmHg 88%
17:00 +25°C° 0 mm 1 m/S 743 mmHg 87%
18:00 +25°C° 0 mm 1 m/S 743 mmHg 86%
19:00 +25°C° 0 mm 1 m/S 744 mmHg 85%
20:00 +25°C° 0 mm 1 m/S 744 mmHg 83%
21:00 +25°C° 0 mm 1 m/S 744 mmHg 81%
22:00 +23°C° 0 mm 0 m/S 745 mmHg 79%
23:00 +23°C° 0 mm 0 m/S 744 mmHg 79%

15 Juli, Mittwoch

Zeit Temperatur Niederschläge Wind Luftdruck Luftfeuchtigkeit
00:00 +22°C° 0 mm 0 m/S 744 mmHg 79%
01:00 +22°C° 0 mm 0 m/S 743 mmHg 79%
02:00 +22°C° 0 mm 0 m/S 743 mmHg 80%
03:00 +22°C° 0 mm 0 m/S 743 mmHg 80%
04:00 +21°C° 0 mm 0 m/S 743 mmHg 81%
05:00 +22°C° 0 mm 0 m/S 743 mmHg 80%
06:00 +22°C° 0 mm 0 m/S 744 mmHg 79%
07:00 +23°C° 0 mm 0 m/S 744 mmHg 78%
08:00 +24°C° 0 mm 0 m/S 744 mmHg 74%
09:00 +27°C° 0 mm 1 m/S 745 mmHg 71%
10:00 +28°C° 0 mm 1 m/S 745 mmHg 67%
11:00 +29°C° 0 mm 1 m/S 744 mmHg 65%
12:00 +30°C° 0 mm 1 m/S 744 mmHg 63%
13:00 +31°C° 0 mm 1 m/S 743 mmHg 60%
14:00 +31°C° 0 mm 1 m/S 742 mmHg 63%
15:00 +30°C° 0 mm 1 m/S 742 mmHg 66%
16:00 +30°C° 0 mm 2 m/S 741 mmHg 69%
17:00 +28°C° 0.1 mm 1 m/S 742 mmHg 76%
18:00 +27°C° 0.1 mm 1 m/S 742 mmHg 83%
19:00 +23°C° 0.1 mm 0 m/S 742 mmHg 90%
20:00 +25°C° 0.3 mm 1 m/S 743 mmHg 90%
21:00 +25°C° 0.3 mm 1 m/S 743 mmHg 90%
22:00 +24°C° 0.3 mm 1 m/S 744 mmHg 90%
23:00 +24°C° 0.3 mm 1 m/S 744 mmHg 89%

16 Juli, Donnerstag

Zeit Temperatur Niederschläge Wind Luftdruck Luftfeuchtigkeit
00:00 +24°C° 0.3 mm 1 m/S 743 mmHg 89%
01:00 +23°C° 0.3 mm 1 m/S 743 mmHg 89%
02:00 +23°C° 0 mm 1 m/S 743 mmHg 89%
03:00 +23°C° 0 mm 1 m/S 743 mmHg 88%
04:00 +23°C° 0 mm 1 m/S 743 mmHg 87%
05:00 +24°C° 0.1 mm 1 m/S 743 mmHg 85%
06:00 +25°C° 0.1 mm 1 m/S 743 mmHg 83%
07:00 +26°C° 0.1 mm 1 m/S 744 mmHg 81%
08:00 +27°C° 0.3 mm 1 m/S 744 mmHg 75%
09:00 +29°C° 0.3 mm 1 m/S 744 mmHg 70%
10:00 +31°C° 0.3 mm 1 m/S 744 mmHg 64%
11:00 +31°C° 0.7 mm 1 m/S 744 mmHg 66%
12:00 +31°C° 0.7 mm 1 m/S 743 mmHg 69%
13:00 +31°C° 0.7 mm 2 m/S 743 mmHg 71%
14:00 +30°C° 1.8 mm 2 m/S 742 mmHg 76%
15:00 +29°C° 1.8 mm 2 m/S 742 mmHg 82%
16:00 +28°C° 1.8 mm 2 m/S 742 mmHg 87%
17:00 +27°C° 0.4 mm 1 m/S 742 mmHg 89%
18:00 +26°C° 0.4 mm 1 m/S 742 mmHg 91%
19:00 +23°C° 0.4 mm 0 m/S 743 mmHg 93%
20:00 +23°C° 0 mm 0 m/S 743 mmHg 93%
21:00 +23°C° 0 mm 0 m/S 744 mmHg 93%
22:00 +23°C° 0 mm 0 m/S 744 mmHg 93%
23:00 +23°C° 0 mm 0 m/S 744 mmHg 93%
Mehr zeigen